TimeEST,TemperatureF,Dew PointF,Humidity,Sea Level PressureIn,VisibilityMPH,Wind Direction,Wind SpeedMPH,Gust SpeedMPH,PrecipitationIn,Events,Conditions,WindDirDegrees,DateUTC
12:10 AM,26.6,26.6,100,30.26,2.0,South,3.5,-,N/A,,Partly Cloudy,190,2012-02-06 05:10:00
12:18 AM,26.6,26.6,100,30.26,1.8,Calm,Calm,-,N/A,,Mostly Cloudy,0,2012-02-06 05:18:00
12:25 AM,28.4,26.6,93,30.26,0.2,Calm,Calm,-,N/A,Fog,Light Freezing Fog,0,2012-02-06 05:25:00
12:53 AM,27.0,26.1,96,30.26,0.2,SSW,3.5,-,N/A,Fog,Light Freezing Fog,210,2012-02-06 05:53:00
1:14 AM,26.6,26.6,100,30.26,0.5,Calm,Calm,-,N/A,Fog,Light Freezing Fog,0,2012-02-06 06:14:00
1:33 AM,26.6,26.6,100,30.27,0.2,Calm,Calm,-,N/A,Fog,Light Freezing Fog,0,2012-02-06 06:33:00
1:43 AM,26.6,24.8,93,30.27,1.0,North,3.5,-,N/A,,Mist,10,2012-02-06 06:43:00
1:46 AM,26.6,24.8,93,30.27,2.0,North,3.5,-,N/A,,Scattered Clouds,10,2012-02-06 06:46:00
1:53 AM,27.0,26.1,96,30.27,6.0,Calm,Calm,-,N/A,,Partly Cloudy,0,2012-02-06 06:53:00
2:23 AM,26.6,24.8,93,30.27,1.8,Calm,Calm,-,N/A,,Clear,0,2012-02-06 07:23:00
2:32 AM,26.6,24.8,93,30.27,3.0,Calm,Calm,-,N/A,,Clear,0,2012-02-06 07:32:00
2:53 AM,26.1,25.0,96,30.27,5.0,Calm,Calm,-,N/A,,Clear,0,2012-02-06 07:53:00
3:53 AM,25.0,24.1,96,30.26,6.0,Calm,Calm,-,N/A,,Scattered Clouds,0,2012-02-06 08:53:00
4:53 AM,26.1,24.1,92,30.27,6.0,Calm,Calm,-,N/A,,Scattered Clouds,0,2012-02-06 09:53:00
5:53 AM,28.0,28.0,100,30.27,7.0,Calm,Calm,-,N/A,,Overcast,0,2012-02-06 10:53:00
6:53 AM,28.9,28.0,96,30.27,7.0,Calm,Calm,-,N/A,,Overcast,0,2012-02-06 11:53:00
7:53 AM,30.0,28.9,96,30.28,5.0,Calm,Calm,-,N/A,,Mostly Cloudy,0,2012-02-06 12:53:00
8:53 AM,32.0,32.0,100,30.29,5.0,Calm,Calm,-,N/A,,Clear,0,2012-02-06 13:53:00
9:53 AM,35.1,34.0,96,30.29,7.0,SSW,3.5,-,N/A,,Clear,210,2012-02-06 14:53:00
10:53 AM,39.0,34.0,82,30.28,10.0,SSW,4.6,-,N/A,,Clear,210,2012-02-06 15:53:00
11:53 AM,42.1,32.0,67,30.26,10.0,West,3.5,-,N/A,,Clear,260,2012-02-06 16:53:00
12:53 PM,44.1,32.0,63,30.22,10.0,WSW,5.8,-,N/A,,Clear,250,2012-02-06 17:53:00
1:53 PM,46.0,30.9,56,30.19,10.0,SSW,5.8,-,N/A,,Clear,200,2012-02-06 18:53:00
2:53 PM,48.9,32.0,52,30.16,10.0,Calm,Calm,-,N/A,,Clear,0,2012-02-06 19:53:00
3:53 PM,48.9,32.0,52,30.15,10.0,Calm,Calm,-,N/A,,Clear,0,2012-02-06 20:53:00
4:53 PM,48.0,34.0,58,30.13,10.0,SSW,3.5,-,N/A,,Clear,210,2012-02-06 21:53:00
5:53 PM,44.1,32.0,63,30.13,10.0,Calm,Calm,-,N/A,,Clear,0,2012-02-06 22:53:00
6:53 PM,37.9,33.1,83,30.13,10.0,Calm,Calm,-,N/A,,Clear,0,2012-02-06 23:53:00
7:53 PM,37.0,30.9,79,30.13,10.0,SSW,3.5,-,N/A,,Clear,200,2012-02-07 00:53:00
8:53 PM,36.0,32.0,86,30.13,10.0,SSW,5.8,-,N/A,,Clear,210,2012-02-07 01:53:00
9:53 PM,34.0,30.9,89,30.13,10.0,SW,6.9,-,N/A,,Clear,220,2012-02-07 02:53:00
10:53 PM,33.1,30.0,89,30.13,10.0,SW,5.8,-,N/A,,Clear,220,2012-02-07 03:53:00
11:53 PM,33.1,30.0,89,30.13,10.0,Calm,Calm,-,N/A,,Clear,0,2012-02-07 04:53:00